| time (UTC) | temp F | wind direction | speed knots | gust knots | rain 1hr in | rain 24hr in | rain mn in | humidity % | barometer mb |
| 20260504215002 | 72 | 126 | 0.9 | 5.2 | 0.00 | 0.00 | 0.00 | 43 | 1010.2 |
| 20260504214511 | 72 | 327 | 0.9 | 4.3 | 0.00 | 0.00 | 0.00 | 42 | 1010.2 |
| 20260504214008 | 72 | 78 | 0.9 | 5.2 | 0.00 | 0.00 | 0.00 | 43 | 1010.2 |
| 20260504213506 | 72 | 281 | 0.0 | 5.2 | 0.00 | 0.00 | 0.00 | 40 | 1010.2 |
| 20260504212507 | 73 | 208 | 0.9 | 5.2 | 0.00 | 0.00 | 0.00 | 40 | 1010.2 |
| 20260504212008 | 73 | 292 | 0.9 | 5.2 | 0.00 | 0.00 | 0.00 | 40 | 1010.2 |
| 20260504211514 | 73 | 209 | 0.9 | 4.3 | 0.00 | 0.00 | 0.00 | 40 | 1010.2 |
| 20260504211005 | 73 | 207 | 0.0 | 3.5 | 0.00 | 0.00 | 0.00 | 39 | 1010.2 |
| 20260504210506 | 73 | 175 | 0.9 | 3.5 | 0.00 | 0.00 | 0.00 | 38 | 1010.1 |
| 20260504210031 | 73 | 302 | 1.7 | 4.3 | 0.00 | 0.00 | 0.00 | 38 | 1010.3 |
| 20260504205506 | 73 | 219 | 0.9 | 5.2 | 0.00 | 0.00 | 0.00 | 38 | 1010.4 |
| 20260504205006 | 74 | 5 | 0.9 | 5.2 | 0.00 | 0.00 | 0.00 | 38 | 1010.3 |
| 20260504204528 | 74 | 125 | 0.9 | 4.3 | 0.00 | 0.00 | 0.00 | 36 | 1010.3 |
| 20260504204005 | 74 | 175 | 0.9 | 4.3 | 0.00 | 0.00 | 0.00 | 36 | 1010.3 |
| 20260504203506 | 74 | 9 | 0.9 | 3.5 | 0.00 | 0.00 | 0.00 | 37 | 1010.4 |
| 20260504202507 | 75 | 236 | 0.0 | 2.6 | 0.00 | 0.00 | 0.00 | 38 | 1010.6 |
| 20260504202008 | 75 | 84 | 0.0 | 2.6 | 0.00 | 0.00 | 0.00 | 38 | 1010.7 |
| 20260504201518 | 75 | 296 | 0.9 | 2.6 | 0.00 | 0.00 | 0.00 | 36 | 1010.7 |
| 20260504201005 | 75 | 84 | 0.0 | 2.6 | 0.00 | 0.00 | 0.00 | 37 | 1010.7 |
| 20260504200505 | 75 | 327 | 0.9 | 3.5 | 0.00 | 0.00 | 0.00 | 37 | 1010.7 |
| 20260504200020 | 75 | 170 | 0.9 | 3.5 | 0.00 | 0.00 | 0.00 | 36 | 1010.8 |
| 20260504195504 | 74 | 153 | 0.9 | 2.6 | 0.00 | 0.00 | 0.00 | 38 | 1010.9 |
| 20260504195006 | 74 | 134 | 0.0 | 2.6 | 0.00 | 0.00 | 0.00 | 36 | 1011.0 |
| 20260504194518 | 74 | 74 | 0.9 | 2.6 | 0.00 | 0.00 | 0.00 | 38 | 1011.0 |
| 20260504194007 | 74 | 170 | 0.9 | 2.6 | 0.00 | 0.00 | 0.00 | 36 | 1011.1 |
| 20260504193506 | 74 | 132 | 0.9 | 2.6 | 0.00 | 0.00 | 0.00 | 36 | 1011.3 |
| 20260504193020 | 74 | 173 | 0.9 | 2.6 | 0.00 | 0.00 | 0.00 | 37 | 1011.4 |
| 20260504192507 | 74 | 148 | 0.0 | 2.6 | 0.00 | 0.00 | 0.00 | 38 | 1011.5 |
| 20260504192009 | 73 | 280 | 0.0 | 2.6 | 0.00 | 0.00 | 0.00 | 37 | 1011.6 |
| 20260504191514 | 73 | 93 | 0.9 | 3.5 | 0.00 | 0.00 | 0.00 | 37 | 1011.6 |
| 20260504191008 | 73 | 164 | 0.9 | 3.5 | 0.00 | 0.00 | 0.00 | 35 | 1011.7 |
| 20260504190508 | 74 | 256 | 0.0 | 3.5 | 0.00 | 0.00 | 0.00 | 36 | 1011.7 |
| 20260504185506 | 73 | 347 | 0.9 | 3.5 | 0.00 | 0.00 | 0.00 | 36 | 1011.9 |
| 20260504185005 | 73 | 153 | 0.9 | 3.5 | 0.00 | 0.00 | 0.00 | 36 | 1011.9 |
| 20260504184524 | 73 | 103 | 0.0 | 2.6 | 0.00 | 0.00 | 0.00 | 37 | 1012.0 |
| 20260504184008 | 73 | 173 | 0.9 | 2.6 | 0.00 | 0.00 | 0.00 | 36 | 1012.0 |
| 20260504183506 | 73 | 184 | 0.0 | 3.5 | 0.00 | 0.00 | 0.00 | 36 | 1012.1 |
| 20260504183018 | 73 | 154 | 0.9 | 3.5 | 0.00 | 0.00 | 0.00 | 35 | 1012.1 |
| 20260504182507 | 72 | 263 | 0.0 | 3.5 | 0.00 | 0.00 | 0.00 | 36 | 1012.1 |
| 20260504182008 | 72 | 153 | 0.0 | 1.7 | 0.00 | 0.00 | 0.00 | 37 | 1012.1 |
| 20260504181522 | 72 | 138 | 0.9 | 3.5 | 0.00 | 0.00 | 0.00 | 38 | 1012.2 |
| 20260504181009 | 71 | 169 | 0.0 | 3.5 | 0.00 | 0.00 | 0.00 | 37 | 1012.2 |
| 20260504175504 | 71 | 202 | 0.0 | 2.6 | 0.00 | 0.00 | 0.00 | 37 | 1012.5 |
| 20260504175007 | 71 | 48 | 0.9 | 2.6 | 0.00 | 0.00 | 0.00 | 37 | 1012.5 |
| 20260504174507 | 71 | 178 | 0.9 | 3.5 | 0.00 | 0.00 | 0.00 | 38 | 1012.6 |
| 20260504174002 | 70 | 151 | 0.0 | 3.5 | 0.00 | 0.00 | 0.00 | 39 | 1012.7 |
| 20260504173504 | 70 | 77 | 0.9 | 5.2 | 0.00 | 0.00 | 0.00 | 40 | 1012.7 |
| 20260504173009 | 69 | 137 | 0.9 | 5.2 | 0.00 | 0.00 | 0.00 | 42 | 1012.8 |
| 20260504172503 | 69 | 115 | 0.9 | 2.6 | 0.00 | 0.00 | 0.00 | 40 | 1012.9 |
| 20260504172003 | 69 | 76 | 0.9 | 3.5 | 0.00 | 0.00 | 0.00 | 40 | 1012.9 |
| 20260504171516 | 69 | 103 | 0.9 | 3.5 | 0.00 | 0.00 | 0.00 | 39 | 1012.8 |
| 20260504170510 | 69 | 156 | 0.0 | 2.6 | 0.00 | 0.00 | 0.00 | 41 | 1013.0 |
| 20260504151007 | 65 | 333 | 0.9 | 2.6 | 0.00 | 0.00 | 0.00 | 41 | 1014.2 |
| 20260504150512 | 64 | 276 | 0.0 | 1.7 | 0.00 | 0.00 | 0.00 | 43 | 1014.3 |
| 20260504130509 | 58 | 216 | 0.9 | 3.5 | 0.00 | 0.00 | 0.00 | 51 | 1014.8 |
| 20260504110509 | 0 | 0.0 | 0.0 | 0.00 | 0.00 | 0.00 | 1015.3 | ||
| 20260504100507 | 0 | 0.0 | 0.0 | 0.00 | 0.00 | 0.00 | 1015.3 | ||
| 20260504082007 | 0 | 0.0 | 0.0 | 0.00 | 0.00 | 0.00 | 1015.6 | ||
| 20260504081533 | 0 | 0.0 | 0.0 | 0.00 | 0.00 | 0.00 | 1015.6 | ||
| 20260504081008 | 0 | 0.0 | 0.0 | 0.00 | 0.00 | 0.00 | 1015.7 | ||
| 20260504080508 | 0 | 0.0 | 0.0 | 0.00 | 0.00 | 0.00 | 1015.7 | ||
| 20260504050508 | 47 | 277 | 0.0 | 0.0 | 0.00 | 0.00 | 0.00 | 73 | 1015.8 |
| 20260504050021 | 47 | 277 | 0.0 | 0.0 | 0.00 | 0.00 | 0.00 | 72 | 1015.8 |
| 20260504045505 | 48 | 277 | 0.0 | 0.0 | 0.00 | 0.00 | 0.00 | 68 | 1015.8 |
| 20260504045008 | 48 | 264 | 0.0 | 0.0 | 0.00 | 0.00 | 0.00 | 69 | 1015.9 |
| 20260504044529 | 48 | 264 | 0.0 | 0.9 | 0.00 | 0.00 | 0.00 | 67 | 1016.0 |
| 20260504044010 | 49 | 264 | 0.0 | 0.9 | 0.00 | 0.00 | 0.00 | 67 | 1016.0 |
| 20260504043503 | 49 | 252 | 0.0 | 0.0 | 0.00 | 0.00 | 0.00 | 67 | 1015.9 |
| 20260504043015 | 48 | 251 | 0.0 | 0.0 | 0.00 | 0.00 | 0.00 | 66 | 1015.9 |
| 20260504042507 | 48 | 251 | 0.0 | 0.0 | 0.00 | 0.00 | 0.00 | 66 | 1015.9 |
| 20260504042008 | 48 | 273 | 0.0 | 0.0 | 0.00 | 0.00 | 0.00 | 64 | 1015.9 |
| 20260504041538 | 47 | 281 | 0.0 | 0.0 | 0.00 | 0.00 | 0.00 | 68 | 1015.8 |
| 20260504041009 | 47 | 281 | 0.0 | 0.0 | 0.00 | 0.00 | 0.00 | 69 | 1015.8 |
| 20260504040510 | 46 | 281 | 0.0 | 0.9 | 0.00 | 0.00 | 0.00 | 68 | 1015.8 |
| 20260504040032 | 45 | 282 | 0.0 | 0.9 | 0.00 | 0.00 | 0.00 | 70 | 1015.8 |
| 20260504035510 | 45 | 279 | 0.0 | 0.0 | 0.00 | 0.00 | 0.00 | 73 | 1015.8 |
| 20260504035006 | 45 | 279 | 0.0 | 0.0 | 0.00 | 0.00 | 0.00 | 74 | 1015.7 |
| 20260504034518 | 45 | 279 | 0.0 | 0.0 | 0.00 | 0.00 | 0.00 | 74 | 1015.6 |
| 20260504034007 | 45 | 279 | 0.0 | 0.0 | 0.00 | 0.00 | 0.00 | 75 | 1015.6 |
| 20260504033507 | 45 | 279 | 0.0 | 0.0 | 0.00 | 0.00 | 0.00 | 75 | 1015.6 |
| 20260504033025 | 45 | 279 | 0.0 | 0.0 | 0.00 | 0.00 | 0.00 | 75 | 1015.5 |
| 20260504032509 | 45 | 290 | 0.0 | 0.0 | 0.00 | 0.00 | 0.00 | 75 | 1015.4 |
| 20260504032012 | 45 | 290 | 0.0 | 0.0 | 0.00 | 0.00 | 0.00 | 74 | 1015.3 |
| 20260504031530 | 45 | 290 | 0.0 | 0.0 | 0.00 | 0.00 | 0.00 | 73 | 1015.2 |
| 20260504031006 | 45 | 290 | 0.0 | 0.0 | 0.00 | 0.00 | 0.00 | 73 | 1015.2 |
| 20260504030508 | 45 | 290 | 0.0 | 0.0 | 0.00 | 0.00 | 0.00 | 72 | 1015.2 |
| 20260504030022 | 45 | 290 | 0.0 | 0.0 | 0.00 | 0.00 | 0.00 | 72 | 1015.3 |
| 20260504025507 | 45 | 290 | 0.0 | 0.0 | 0.00 | 0.00 | 0.00 | 72 | 1015.2 |
| 20260504025011 | 45 | 290 | 0.0 | 0.0 | 0.00 | 0.00 | 0.00 | 71 | 1015.2 |
| 20260504024526 | 46 | 290 | 0.0 | 0.0 | 0.00 | 0.00 | 0.00 | 71 | 1015.2 |
| 20260504024009 | 46 | 290 | 0.0 | 0.0 | 0.00 | 0.00 | 0.00 | 70 | 1015.2 |
| 20260504023507 | 46 | 290 | 0.0 | 0.0 | 0.00 | 0.00 | 0.00 | 70 | 1015.2 |
| 20260504023018 | 46 | 290 | 0.0 | 0.0 | 0.00 | 0.00 | 0.00 | 69 | 1015.2 |
| 20260504022507 | 47 | 290 | 0.0 | 0.0 | 0.00 | 0.00 | 0.00 | 68 | 1015.2 |
| 20260504022008 | 47 | 290 | 0.0 | 0.0 | 0.00 | 0.00 | 0.00 | 68 | 1015.2 |
| 20260504021524 | 47 | 290 | 0.0 | 0.0 | 0.00 | 0.00 | 0.00 | 67 | 1015.2 |
| 20260504021006 | 47 | 290 | 0.0 | 0.0 | 0.00 | 0.00 | 0.00 | 67 | 1015.2 |
| 20260504020508 | 47 | 290 | 0.0 | 0.0 | 0.00 | 0.00 | 0.00 | 67 | 1015.1 |
| 20260504020036 | 48 | 290 | 0.0 | 0.0 | 0.00 | 0.00 | 0.00 | 66 | 1015.1 |
| 20260504015507 | 48 | 290 | 0.0 | 0.0 | 0.00 | 0.00 | 0.00 | 65 | 1015.2 |
| 20260504015005 | 48 | 290 | 0.0 | 0.0 | 0.00 | 0.00 | 0.00 | 64 | 1015.1 |
| 20260504014502 | 48 | 290 | 0.0 | 0.0 | 0.00 | 0.00 | 0.00 | 63 | 1015.2 |
| 20260504014006 | 49 | 290 | 0.0 | 0.0 | 0.00 | 0.00 | 0.00 | 63 | 1015.1 |
| 20260504013505 | 49 | 290 | 0.0 | 0.0 | 0.00 | 0.00 | 0.00 | 62 | 1015.1 |
| 20260504013006 | 49 | 290 | 0.0 | 0.0 | 0.00 | 0.00 | 0.00 | 61 | 1015.1 |
| 20260504012508 | 49 | 290 | 0.0 | 0.0 | 0.00 | 0.00 | 0.00 | 60 | 1015.0 |
| 20260504012004 | 50 | 290 | 0.0 | 0.0 | 0.00 | 0.00 | 0.00 | 60 | 1015.0 |
| 20260504011515 | 50 | 290 | 0.0 | 0.0 | 0.00 | 0.00 | 0.00 | 56 | 1014.9 |
| 20260504011001 | 51 | 290 | 0.0 | 0.0 | 0.00 | 0.00 | 0.00 | 55 | 1014.8 |
| 20260504010501 | 52 | 290 | 0.0 | 0.0 | 0.00 | 0.00 | 0.00 | 54 | 1014.8 |
| 20260504010005 | 52 | 290 | 0.0 | 0.0 | 0.00 | 0.00 | 0.00 | 52 | 1014.8 |
| 20260504005503 | 53 | 290 | 0.0 | 0.0 | 0.00 | 0.00 | 0.00 | 51 | 1014.8 |
| 20260504005004 | 54 | 290 | 0.0 | 0.0 | 0.00 | 0.00 | 0.00 | 49 | 1014.7 |
| 20260504004515 | 54 | 290 | 0.0 | 0.0 | 0.00 | 0.00 | 0.00 | 47 | 1014.6 |
| 20260504004004 | 55 | 290 | 0.0 | 0.0 | 0.00 | 0.00 | 0.00 | 47 | 1014.6 |
| 20260504003505 | 55 | 290 | 0.0 | 0.0 | 0.00 | 0.00 | 0.00 | 45 | 1014.5 |
| 20260504003019 | 55 | 290 | 0.0 | 0.0 | 0.00 | 0.00 | 0.00 | 44 | 1014.5 |
| 20260504002502 | 56 | 290 | 0.0 | 0.0 | 0.00 | 0.00 | 0.00 | 43 | 1014.5 |
| 20260504002002 | 56 | 290 | 0.0 | 0.0 | 0.00 | 0.00 | 0.00 | 41 | 1014.4 |
| 20260504001511 | 57 | 290 | 0.0 | 0.0 | 0.00 | 0.00 | 0.00 | 41 | 1014.4 |
| 20260504001004 | 57 | 290 | 0.0 | 0.0 | 0.00 | 0.00 | 0.00 | 40 | 1014.4 |
| 20260504000505 | 58 | 290 | 0.0 | 0.0 | 0.00 | 0.00 | 0.00 | 39 | 1014.4 |
| 20260504000013 | 58 | 290 | 0.0 | 0.9 | 0.00 | 0.00 | 0.00 | 39 | 1014.4 |
| 20260503235504 | 59 | 290 | 0.0 | 0.9 | 0.00 | 0.00 | 0.00 | 38 | 1014.3 |
| 20260503235004 | 59 | 258 | 0.0 | 0.0 | 0.00 | 0.00 | 0.00 | 35 | 1014.2 |
| 20260503234503 | 60 | 257 | 0.0 | 0.0 | 0.00 | 0.00 | 0.00 | 35 | 1014.2 |
| 20260503234003 | 60 | 257 | 0.0 | 1.7 | 0.00 | 0.00 | 0.00 | 33 | 1014.1 |
| 20260503233502 | 60 | 257 | 0.0 | 1.7 | 0.00 | 0.00 | 0.00 | 35 | 1014.0 |
| 20260503233011 | 61 | 234 | 0.0 | 1.7 | 0.00 | 0.00 | 0.00 | 32 | 1014.0 |
| 20260503232504 | 61 | 234 | 0.0 | 1.7 | 0.00 | 0.00 | 0.00 | 31 | 1014.0 |
| 20260503232005 | 61 | 271 | 0.0 | 0.9 | 0.00 | 0.00 | 0.00 | 31 | 1014.0 |
| 20260503231518 | 62 | 279 | 0.0 | 1.7 | 0.00 | 0.00 | 0.00 | 31 | 1014.0 |
| 20260503231010 | 62 | 266 | 0.0 | 2.6 | 0.00 | 0.00 | 0.00 | 31 | 1013.9 |
| 20260503230502 | 62 | 234 | 0.0 | 2.6 | 0.00 | 0.00 | 0.00 | 29 | 1013.9 |
| 20260503230011 | 62 | 290 | 0.0 | 1.7 | 0.00 | 0.00 | 0.00 | 29 | 1013.9 |
| 20260503225503 | 62 | 319 | 0.0 | 2.6 | 0.00 | 0.00 | 0.00 | 30 | 1013.9 |
| 20260503225003 | 62 | 340 | 0.0 | 3.5 | 0.00 | 0.00 | 0.00 | 29 | 1014.0 |
| 20260503224513 | 62 | 195 | 1.7 | 6.1 | 0.00 | 0.00 | 0.00 | 29 | 1014.1 |
| 20260503224007 | 62 | 204 | 1.7 | 7.8 | 0.00 | 0.00 | 0.00 | 28 | 1014.0 |
| 20260503223507 | 63 | 334 | 2.6 | 7.8 | 0.00 | 0.00 | 0.00 | 28 | 1013.9 |
| 20260503223026 | 63 | 288 | 1.7 | 6.1 | 0.00 | 0.00 | 0.00 | 29 | 1014.0 |
| 20260503222503 | 62 | 309 | 0.0 | 6.1 | 0.00 | 0.00 | 0.00 | 30 | 1013.9 |
| 20260503222004 | 62 | 271 | 0.9 | 5.2 | 0.00 | 0.00 | 0.00 | 29 | 1013.9 |
| 20260503221508 | 62 | 217 | 0.9 | 4.3 | 0.00 | 0.00 | 0.00 | 30 | 1013.9 |
| 20260503221004 | 62 | 215 | 1.7 | 7.0 | 0.00 | 0.00 | 0.00 | 28 | 1014.0 |
| 20260503220504 | 62 | 207 | 1.7 | 7.0 | 0.00 | 0.00 | 0.00 | 29 | 1014.1 |
| 20260503220016 | 63 | 290 | 1.7 | 3.5 | 0.00 | 0.00 | 0.00 | 30 | 1014.2 |
| 20260503215508 | 63 | 193 | 1.7 | 4.3 | 0.00 | 0.00 | 0.00 | 29 | 1014.0 |